TimeCDT,TemperatureF,Dew PointF,Humidity,Sea Level PressureIn,VisibilityMPH,Wind Direction,Wind SpeedMPH,Gust SpeedMPH,PrecipitationIn,Events,Conditions,WindDirDegrees,DateUTC
12:53 AM,69.1,66.0,90,30.00,9.0,Calm,Calm,-,N/A,,Partly Cloudy,0,2013-10-03 05:53:00
1:43 AM,68.0,64.4,88,30.01,2.0,Calm,Calm,-,N/A,,Scattered Clouds,0,2013-10-03 06:43:00
1:53 AM,66.9,64.0,90,29.99,4.0,Calm,Calm,-,N/A,,Partly Cloudy,0,2013-10-03 06:53:00
1:58 AM,66.2,64.4,94,30.01,1.5,Calm,Calm,-,N/A,,Partly Cloudy,0,2013-10-03 06:58:00
2:06 AM,66.2,64.4,94,30.01,0.5,Calm,Calm,-,N/A,Fog,Fog,0,2013-10-03 07:06:00
2:19 AM,66.2,64.4,94,30.01,0.5,Calm,Calm,-,N/A,Fog,Fog,0,2013-10-03 07:19:00
2:29 AM,66.2,64.4,94,30.00,0.5,Calm,Calm,-,N/A,Fog,Fog,0,2013-10-03 07:29:00
2:53 AM,64.9,63.0,93,29.99,1.5,Calm,Calm,-,N/A,,Mostly Cloudy,0,2013-10-03 07:53:00
2:56 AM,66.2,62.6,88,30.00,3.0,Calm,Calm,-,N/A,,Mostly Cloudy,0,2013-10-03 07:56:00
3:53 AM,66.9,64.0,90,29.99,7.0,Calm,Calm,-,N/A,,Overcast,0,2013-10-03 08:53:00
4:53 AM,68.0,64.9,90,29.99,7.0,Calm,Calm,-,0.00,,Mostly Cloudy,0,2013-10-03 09:53:00
5:53 AM,68.0,64.9,90,30.00,7.0,Calm,Calm,-,0.00,,Overcast,0,2013-10-03 10:53:00
6:53 AM,68.0,64.9,90,30.01,5.0,Calm,Calm,-,N/A,,Mostly Cloudy,0,2013-10-03 11:53:00
7:53 AM,69.1,64.9,87,30.01,8.0,Calm,Calm,-,N/A,,Partly Cloudy,0,2013-10-03 12:53:00
8:53 AM,73.0,66.9,81,30.01,10.0,South,5.8,-,N/A,,Clear,180,2013-10-03 13:53:00
9:53 AM,75.9,68.0,76,30.01,10.0,South,6.9,-,N/A,,Mostly Cloudy,190,2013-10-03 14:53:00
10:53 AM,81.0,70.0,69,30.00,10.0,South,10.4,16.1,N/A,,Scattered Clouds,180,2013-10-03 15:53:00
11:04 AM,80.6,69.8,70,30.01,10.0,SSW,9.2,-,N/A,,Mostly Cloudy,210,2013-10-03 16:04:00
11:53 AM,82.0,70.0,67,30.00,10.0,SSW,6.9,-,N/A,,Overcast,210,2013-10-03 16:53:00
12:07 PM,84.2,69.8,62,30.01,10.0,South,8.1,-,N/A,,Mostly Cloudy,190,2013-10-03 17:07:00
12:37 PM,80.6,69.8,70,30.00,5.0,SSW,9.2,-,0.00,Rain-Thunderstorm,Light Thunderstorms and Rain,200,2013-10-03 17:37:00
12:46 PM,75.2,71.6,89,30.01,2.5,SSW,11.5,18.4,0.06,Rain,Light Rain,210,2013-10-03 17:46:00
12:53 PM,75.9,70.0,82,29.99,5.0,South,6.9,-,0.07,Rain,Light Rain,190,2013-10-03 17:53:00
1:03 PM,75.2,69.8,83,29.99,9.0,SE,6.9,-,0.00,Rain,Light Rain,140,2013-10-03 18:03:00
1:11 PM,78.8,71.6,78,29.98,10.0,Variable,5.8,-,0.00,,Mostly Cloudy,0,2013-10-03 18:11:00
1:35 PM,78.8,71.6,78,29.98,10.0,SSE,5.8,-,0.00,Thunderstorm,Partly Cloudy,150,2013-10-03 18:35:00
1:46 PM,78.8,71.6,78,29.98,10.0,SE,9.2,-,0.00,,Mostly Cloudy,140,2013-10-03 18:46:00
1:53 PM,77.0,70.0,79,29.96,10.0,SE,8.1,-,0.00,,Mostly Cloudy,130,2013-10-03 18:53:00
2:07 PM,77.0,68.0,74,29.96,10.0,SE,8.1,-,N/A,,Scattered Clouds,140,2013-10-03 19:07:00
2:25 PM,75.2,69.8,83,29.96,8.0,SSE,9.2,-,0.00,Rain-Thunderstorm,Light Thunderstorms and Rain,160,2013-10-03 19:25:00
2:53 PM,78.1,70.0,76,29.95,10.0,SSE,10.4,-,0.00,Thunderstorm,Scattered Clouds,160,2013-10-03 19:53:00
3:22 PM,80.6,69.8,70,29.94,10.0,SSE,9.2,-,0.00,,Partly Cloudy,150,2013-10-03 20:22:00
3:53 PM,82.9,70.0,65,29.92,10.0,South,5.8,-,0.00,Thunderstorm,Clear,180,2013-10-03 20:53:00
4:15 PM,77.0,69.8,78,29.94,7.0,South,11.5,-,0.00,Rain-Thunderstorm,Light Thunderstorms and Rain,190,2013-10-03 21:15:00
4:25 PM,75.2,69.8,83,29.94,1.8,SW,4.6,-,0.04,Rain-Thunderstorm,Heavy Thunderstorms and Rain,230,2013-10-03 21:25:00
4:30 PM,75.2,71.6,89,29.94,2.5,WSW,3.5,-,0.06,Rain,Light Rain,250,2013-10-03 21:30:00
4:37 PM,77.0,69.8,78,29.94,10.0,Calm,Calm,-,0.06,Rain,Light Rain,0,2013-10-03 21:37:00
4:53 PM,78.1,70.0,76,29.93,10.0,SW,3.5,-,0.06,,Mostly Cloudy,220,2013-10-03 21:53:00
5:53 PM,77.0,73.0,88,29.92,6.0,Calm,Calm,-,N/A,,Mostly Cloudy,0,2013-10-03 22:53:00
6:29 PM,75.2,71.6,89,29.93,7.0,Calm,Calm,-,N/A,Thunderstorm,Mostly Cloudy,0,2013-10-03 23:29:00
6:53 PM,75.9,72.0,87,29.92,5.0,ESE,3.5,-,0.02,Rain-Thunderstorm,Light Thunderstorms and Rain,110,2013-10-03 23:53:00
7:00 PM,75.2,71.6,89,29.95,1.5,SSW,13.8,24.2,0.02,Rain-Thunderstorm,Heavy Thunderstorms and Rain,200,2013-10-04 00:00:00
7:07 PM,73.4,71.6,94,29.95,0.5,SW,3.5,-,0.39,Fog-Rain-Thunderstorm,Heavy Rain,230,2013-10-04 00:07:00
7:18 PM,73.4,69.8,88,29.95,1.0,Calm,Calm,-,0.72,Rain,Heavy Rain,0,2013-10-04 00:18:00
7:27 PM,73.4,69.8,88,29.94,3.0,Calm,Calm,-,0.77,Rain,Light Rain,0,2013-10-04 00:27:00
7:36 PM,73.4,69.8,88,29.94,5.0,Calm,Calm,-,0.79,Rain,Light Rain,0,2013-10-04 00:36:00
7:53 PM,73.9,70.0,87,29.94,10.0,Calm,Calm,-,0.80,,Overcast,0,2013-10-04 00:53:00
8:53 PM,73.0,70.0,90,29.95,7.0,Calm,Calm,-,N/A,,Mostly Cloudy,0,2013-10-04 01:53:00
9:53 PM,73.0,70.0,90,29.95,7.0,Calm,Calm,-,N/A,,Overcast,0,2013-10-04 02:53:00
11:53 PM,72.0,68.0,87,29.95,10.0,SSE,3.5,-,N/A,,Clear,160,2013-10-04 04:53:00